Regional Weather Roundup
Issued by NWS Goodland, KS

Home | Current Version | Previous Version | Text Only | Print | Product List | Glossary On
Versions: 1 2 3 4 5 6 7 8 9 10 11 12 13 14 15 16 17 18 19 20 21 22 23 24 25 26 27 28 29 30 31 32 33 34 35 36 37 38 39 40 41 42 43 44 45 46 47 48 49 50
000
ASUS43 KGLD 261408
RWRGLD

GOODLAND FORECAST AREA HOURLY WEATHER ROUNDUP
NATIONAL WEATHER SERVICE GOODLAND KS
800 AM MDT MON SEP 26 2016

...OFFICIAL OBSERVATIONS...

CITY           SKY/WX    TMP DP  RH WIND       PRES   REMARKS
GOODLAND KS    SUNNY     49  35  58 SW8       30.38S
HILL CITY KS   SUNNY     47  38  71 W7        30.37S
IMPERIAL NEB   SUNNY     44  36  73 W8        30.37S
MCCOOK NEB     SUNNY     43  38  82 W9        30.37S
AKRON CO       SUNNY     50  31  48 W14       30.39R
BURLINGTON CO  SUNNY     48  38  68 W7        30.40R
LIMON CO       SUNNY     44  30  57 N5        30.43S
$$

...UNOFFICIAL OBSERVATIONS...

CITY           SKY/WX    TMP DP  RH WIND       PRES   REMARKS
LENORA KS        N/A     50  32  50 MISG        N/A
SHARON SPRINGS   N/A     45  38  77 CALM        N/A
KIT CARSON CO    N/A     46  36  69 CALM        N/A
$$




USA.gov is the U.S. government's official web portal to all federal, state and local government web resources and services.